TimeEST,TemperatureF,Dew PointF,Humidity,Sea Level PressureIn,VisibilityMPH,Wind Direction,Wind SpeedMPH,Gust SpeedMPH,PrecipitationIn,Events,Conditions,WindDirDegrees,DateUTC
12:15 AM,17.6,-0.4,45,30.05,10.0,NW,8.1,-,N/A,,Mostly Cloudy,310,2013-01-18 05:15:00
12:35 AM,17.6,-2.2,42,30.08,10.0,WNW,4.6,-,N/A,,Clear,290,2013-01-18 05:35:00
1:15 AM,15.8,-4.0,41,30.08,10.0,West,5.8,-,N/A,,Overcast,280,2013-01-18 06:15:00
1:35 AM,15.8,-2.2,45,30.07,10.0,WNW,5.8,-,N/A,,Overcast,290,2013-01-18 06:35:00
1:55 AM,15.8,-5.8,38,30.07,10.0,West,8.1,-,N/A,,Overcast,280,2013-01-18 06:55:00
2:15 AM,15.8,-9.4,32,30.10,10.0,WNW,5.8,16.1,N/A,,Overcast,290,2013-01-18 07:15:00
2:35 AM,14.0,-9.4,35,30.10,10.0,WNW,8.1,-,N/A,,Overcast,290,2013-01-18 07:35:00
2:55 AM,14.0,-9.4,35,30.12,10.0,West,8.1,-,N/A,,Overcast,270,2013-01-18 07:55:00
3:35 AM,12.2,-11.2,34,30.11,10.0,West,9.2,-,N/A,,Scattered Clouds,260,2013-01-18 08:35:00
3:55 AM,12.2,-11.2,34,30.11,10.0,West,9.2,-,N/A,,Clear,260,2013-01-18 08:55:00
4:15 AM,10.4,-11.2,37,30.12,10.0,West,6.9,-,N/A,,Clear,260,2013-01-18 09:15:00
4:35 AM,10.4,-11.2,37,30.13,10.0,West,6.9,-,N/A,,Clear,260,2013-01-18 09:35:00
4:55 AM,10.4,-11.2,37,30.13,10.0,West,5.8,-,N/A,,Clear,280,2013-01-18 09:55:00
5:15 AM,10.4,-11.2,37,30.14,10.0,West,4.6,-,N/A,,Clear,260,2013-01-18 10:15:00
5:55 AM,8.6,-11.2,40,30.16,10.0,West,5.8,-,N/A,,Clear,260,2013-01-18 10:55:00
6:15 AM,6.8,-14.8,37,30.16,10.0,WSW,6.9,-,N/A,,Clear,250,2013-01-18 11:15:00
6:35 AM,6.8,-14.8,37,30.18,10.0,West,6.9,-,N/A,,Clear,270,2013-01-18 11:35:00
6:55 AM,6.8,-16.6,34,30.20,10.0,West,8.1,-,N/A,,Clear,260,2013-01-18 11:55:00
7:15 AM,6.8,-16.6,34,30.21,10.0,WSW,4.6,-,N/A,,Clear,250,2013-01-18 12:15:00
7:35 AM,5.0,-16.6,36,30.22,10.0,WSW,5.8,-,N/A,,Clear,250,2013-01-18 12:35:00
7:55 AM,6.8,-14.8,37,30.23,10.0,WSW,8.1,-,N/A,,Clear,250,2013-01-18 12:55:00
8:15 AM,6.8,-14.8,37,30.25,10.0,Calm,Calm,-,N/A,,Clear,0,2013-01-18 13:15:00
8:35 AM,8.6,-14.8,34,30.26,10.0,Calm,Calm,-,N/A,,Clear,0,2013-01-18 13:35:00
8:55 AM,8.6,-14.8,34,30.27,10.0,WNW,5.8,-,N/A,,Clear,290,2013-01-18 13:55:00
9:15 AM,8.6,-14.8,34,30.28,10.0,West,6.9,-,N/A,,Clear,260,2013-01-18 14:15:00
9:35 AM,8.6,-14.8,34,30.28,10.0,West,8.1,-,N/A,,Clear,270,2013-01-18 14:35:00
9:55 AM,10.4,-14.8,31,30.28,10.0,West,6.9,16.1,N/A,,Clear,280,2013-01-18 14:55:00
10:15 AM,10.4,-14.8,31,30.28,10.0,WNW,9.2,16.1,N/A,,Clear,290,2013-01-18 15:15:00
10:55 AM,12.2,-11.2,34,30.28,10.0,WNW,13.8,24.2,N/A,,Clear,290,2013-01-18 15:55:00
11:15 AM,12.2,-11.2,34,30.28,10.0,WNW,15.0,25.3,N/A,,Clear,290,2013-01-18 16:15:00
11:35 AM,14.0,-11.2,32,30.28,10.0,WNW,13.8,25.3,N/A,,Clear,290,2013-01-18 16:35:00
11:55 AM,14.0,-11.2,32,30.28,10.0,WNW,9.2,19.6,N/A,,Clear,290,2013-01-18 16:55:00
12:15 PM,14.0,-11.2,32,30.27,10.0,WNW,10.4,19.6,N/A,,Clear,300,2013-01-18 17:15:00
12:35 PM,15.8,-11.2,30,30.26,10.0,NW,6.9,-,N/A,,Clear,310,2013-01-18 17:35:00
12:55 PM,15.8,-9.4,32,30.27,10.0,West,8.1,-,N/A,,Clear,270,2013-01-18 17:55:00
1:15 PM,15.8,-9.4,32,30.27,10.0,WSW,9.2,20.7,N/A,,Clear,250,2013-01-18 18:15:00
1:35 PM,17.6,-9.4,30,30.28,10.0,West,12.7,16.1,N/A,,Clear,260,2013-01-18 18:35:00
2:15 PM,17.6,-7.6,32,30.28,10.0,West,13.8,18.4,N/A,,Clear,260,2013-01-18 19:15:00
2:35 PM,17.6,-7.6,32,30.29,10.0,West,11.5,-,N/A,,Clear,260,2013-01-18 19:35:00
2:55 PM,19.4,-7.6,30,30.30,10.0,West,10.4,19.6,N/A,,Clear,270,2013-01-18 19:55:00
3:15 PM,19.4,-7.6,30,30.30,10.0,West,13.8,25.3,N/A,,Clear,270,2013-01-18 20:15:00
3:35 PM,19.4,-7.6,30,30.29,10.0,West,13.8,20.7,N/A,,Clear,280,2013-01-18 20:35:00
3:55 PM,19.4,-7.6,30,30.29,10.0,West,11.5,-,N/A,,Clear,260,2013-01-18 20:55:00
4:15 PM,17.6,-7.6,32,30.29,10.0,WSW,9.2,-,N/A,,Clear,250,2013-01-18 21:15:00
4:55 PM,17.6,-7.6,32,30.31,10.0,WSW,10.4,-,N/A,,Clear,240,2013-01-18 21:55:00
5:15 PM,17.6,-5.8,35,30.32,10.0,WSW,8.1,-,N/A,,Clear,250,2013-01-18 22:15:00
5:35 PM,15.8,-7.6,35,30.32,10.0,WSW,5.8,-,N/A,,Clear,240,2013-01-18 22:35:00
5:55 PM,14.0,-5.8,41,30.33,10.0,West,3.5,-,N/A,,Clear,260,2013-01-18 22:55:00
6:15 PM,12.2,-5.8,45,30.33,10.0,Calm,Calm,-,N/A,,Clear,0,2013-01-18 23:15:00
6:35 PM,12.2,-2.2,53,30.33,10.0,Calm,Calm,-,N/A,,Clear,0,2013-01-18 23:35:00
7:15 PM,10.4,-4.0,52,30.33,10.0,WSW,3.5,-,N/A,,Clear,250,2013-01-19 00:15:00
7:35 PM,10.4,-4.0,52,30.33,10.0,WSW,3.5,-,N/A,,Clear,250,2013-01-19 00:35:00
7:55 PM,10.4,-4.0,52,30.33,10.0,Calm,Calm,-,N/A,,Clear,0,2013-01-19 00:55:00
8:15 PM,10.4,-4.0,52,30.34,10.0,Calm,Calm,-,N/A,,Clear,0,2013-01-19 01:15:00
8:35 PM,10.4,-4.0,52,30.33,10.0,Calm,Calm,-,N/A,,Clear,0,2013-01-19 01:35:00
8:55 PM,10.4,-2.2,57,30.34,10.0,WSW,3.5,-,N/A,,Clear,250,2013-01-19 01:55:00
9:35 PM,12.2,-2.2,53,30.33,10.0,SW,3.5,-,N/A,,Clear,220,2013-01-19 02:35:00
9:55 PM,12.2,-0.4,57,30.33,10.0,Calm,Calm,-,N/A,,Clear,0,2013-01-19 02:55:00
10:35 PM,12.2,-0.4,57,30.32,10.0,Calm,Calm,-,N/A,,Clear,0,2013-01-19 03:35:00
10:55 PM,12.2,-0.4,57,30.31,10.0,Calm,Calm,-,N/A,,Scattered Clouds,0,2013-01-19 03:55:00
11:15 PM,12.2,1.4,62,30.30,10.0,Calm,Calm,-,N/A,,Mostly Cloudy,0,2013-01-19 04:15:00
11:55 PM,17.6,3.2,53,30.28,10.0,SSW,8.1,-,N/A,,Overcast,210,2013-01-19 04:55:00